Casablanca/Mohammed V International Airport

Airport
ICAO code: 
GMMN
IATA Code: 
CMN
Summary
ICAO Region: 
AFI
Territory: 
Location: 
Casablanca, Grand Casablanca
Serving: 
Casablanca
Elevation: 
656 ft
Coordinates: 
Aerial View: 
33° 22' 4.016" N, 7° 35' 31.918" W
Metar
Observation
GMMN 221130Z 03004KT CAVOK 21/01 Q1019 NOSIG
Station
Nouasseur
Date/Time
2022-01-22 11:30:00
Wind direction
30°
Wind speed
04 kts
Lowest cloud amount
clouds and visibility OK
Temperature
21°C
Dew point
1°C
Humidity
26%
QNH
1019 hPa
Weather condition
n/a

International airport serving Casablanca.

Climatology

Warm mediterranean climate (Köppen climate classification Csa)

Runways

Designator Length Width Surface Rops
17L/35R 3720 45 ASP Yes/Yes
17R/35L 3720 45 ASP Yes/Yes
Airport map: 
Aerial View: 

Accidents and Serious Incidents at or in the vicinity of GMMN

SKYbrary Partners:

Safety knowledge contributed by: